This is the latest recevied weather packets stored in our database for station/object NR6G-12. If no packets are shown the sender has not sent any weather packets the latest 10 day(s).
| Time | Temp. | Humidity | Pressure | Rain* | Wind** | Luminosity | Snow |
|---|---|---|---|---|---|---|---|
| 1788067452 | 18.89° C | 48% | 1018.7 hPa | 0 mm | - | - | - |
| 1788067092 | 18.89° C | 46% | 1018.7 hPa | 0 mm | - | - | - |
| 1788066732 | 19.44° C | 46% | 1018.7 hPa | 0 mm | - | - | - |
| 1788066382 | 19.44° C | 46% | 1018.8 hPa | 0 mm | - | - | - |
| 1788066012 | 19.44° C | 45% | 1018.8 hPa | 0 mm | - | - | - |
| 1788065654 | 19.44° C | 47% | 1018.8 hPa | 0 mm | - | - | - |
| 1788065292 | 19.44° C | 47% | 1018.8 hPa | 0 mm | - | - | - |
| 1788064935 | 19.44° C | 47% | 1018.7 hPa | 0 mm | - | - | - |
| 1788064572 | 19.44° C | 50% | 1018.7 hPa | 0 mm | - | - | - |
| 1788064218 | 19.44° C | 49% | 1018.7 hPa | 0 mm | - | - | - |
| 1788063852 | 19.44° C | 53% | 1018.6 hPa | 0 mm | - | - | - |
| 1788063492 | 19.44° C | 53% | 1018.7 hPa | 0 mm | - | - | - |
| 1788063132 | 19.44° C | 53% | 1018.6 hPa | 0 mm | - | - | - |
| 1788062773 | 19.44° C | 53% | 1018.5 hPa | 0 mm | - | - | - |
| 1788062412 | 19.44° C | 53% | 1018.4 hPa | 0 mm | - | - | - |
| 1788062052 | 19.44° C | 53% | 1018.4 hPa | 0 mm | - | - | - |
| 1788061692 | 19.44° C | 54% | 1018.3 hPa | 0 mm | - | - | - |
| 1788061332 | 19.44° C | 55% | 1018.2 hPa | 0 mm | - | - | - |
| 1788060972 | 20° C | 54% | 1018.2 hPa | 0 mm | - | - | - |
| 1788060612 | 20° C | 54% | 1018.1 hPa | 0 mm | - | - | - |
| 1788060252 | 20° C | 55% | 1017.9 hPa | 0 mm | - | - | - |
| 1788059892 | 20° C | 56% | 1017.8 hPa | 0 mm | - | - | - |
| 1788059532 | 20° C | 55% | 1017.7 hPa | 0 mm | - | - | - |
| 1788058812 | 20° C | 56% | 1018.4 hPa | 0 mm | - | - | - |
| 1788058452 | 20° C | 58% | 1018.3 hPa | 0 mm | - | - | - |
* Rain latest hour (hover to see other rain measurements)
** Current wind speed in m/s (hover to see current wind gust speed)